Temperature
4 4 4 4 4 4 4 4 4 4 4 4 4 4 4 4 4 4 4 4 4 4 4 4 4 4 4 4 4 4 4 4 4 4 5 5 4 5 5 5 5 5 5
4 4 4 4 4 4 4 4 4 4 4 4 4 4 4 4 4 4 4 4 4 4 3 3 4 4 4 4 4 4 4 4 3 4 4 4 4 4 4 4 5 5 5
3 3 3 3 3 4 4 3 3 3 4 4 3 3 3 3 3 3 3 3 3 3 3 3 3 3 3 3 3 3 3 3 3 3 3 3 4 4 4 4 4 4 4
3 3 3 3 3 3 3 3 3 3 3 3 3 3 3 3 3 3 3 3 2 2 2 2 2 3 3 3 3 2 3 3 2 2 3 3 3 3 3 3 4 4 4
3 3 3 3 3 3 3 3 3 3 3 3 3 3 3 2 2 2 2 2 2 2 2 2 2 2 2 2 2 2 2 2 2 2 2 3 3 3 2 2 3 3 3
2 2 2 2 2 2 2 2 2 2 2 2 2 2 2 2 2 2 2 1 1 1 1 2 2 2 2 2 1 1 1 2 2 2 2 2 2 2 2 2 2 2 2
2 2 2 2 2 2 2 2 2 2 2 2 2 2 2 2 1 1 1 1 1 1 1 1 1 1 1 1 1 1 1 1 1 1 1 1 1 1 1 1 1 1 1
2 2 2 2 2 2 2 1 1 1 1 1 1 1 1 1 1 1 1 1 1 0 0 0 0 0 0 1 1 1 1 1 1 1 1 1 1 1 0 0 0 0 1
1 1 1 1 1 1 1 1 1 1 1 1 1 1 1 1 0 0 0 -0 -0 -0 -0 0 0 -0 -0 -0 0 0 1 1 1 1 1 1 1 1 0 -0 -0 -0 0
1 1 1 1 1 1 1 1 1 0 0 0 0 0 0 0 -0 -0 -0 -0 -1 -1 -1 -1 -1 -1 -1 -1 -0 -0 -0 0 0 1 1 1 0 0 0 -0 -1 -1 -1
0 0 1 1 1 0 0 0 0 -0 -0 -0 -0 -0 -0 -1 -1 -1 -1 -1 -1 -1 -1 -1 -1 -1 -1 -1 -1 -1 -1 -1 -0 0 0 0 0 -0 -0 -1 -1 -1 -1
0 0 0 0 0 -0 -0 -0 -0 -1 -1 -1 -1 -1 -1 -1 -1 -1 -1 -1 -2 -2 -2 -2 -2 -2 -2 -1 -1 -1 -1 -1 -1 -1 -0 -0 -0 -0 -1 -1 -1 -1 -1
-0 -0 -0 -0 -0 -1 -1 -1 -1 -1 -1 -2 -2 -2 -2 -2 -2 -2 -2 -2 -2 -2 -2 -2 -2 -2 -2 -2 -2 -2 -2 -2 -1 -1 -1 -1 -1 -1 -1 -1 -1 -1 -1
-1 -1 -1 -1 -1 -1 -1 -2 -2 -2 -2 -2 -2 -2 -2 -2 -2 -2 -2 -2 -2 -2 -3 -3 -3 -2 -2 -2 -2 -2 -2 -2 -2 -2 -2 -2 -2 -2 -2 -2 -1 -1 -1
-1 -1 -1 -1 -2 -2 -2 -2 -2 -2 -3 -3 -3 -3 -3 -3 -3 -3 -3 -3 -3 -3 -3 -3 -3 -3 -3 -3 -3 -3 -3 -3 -2 -2 -2 -2 -2 -2 -2 -2 -2 -2 -2
-2 -2 -2 -2 -2 -2 -3 -3 -3 -3 -3 -3 -3 -3 -3 -4 -4 -4 -4 -4 -4 -4 -4 -4 -4 -4 -4 -4 -4 -4 -4 -3 -3 -3 -3 -3 -3 -3 -3 -3 -3 -2 -2
-2 -2 -3 -3 -3 -3 -3 -3 -3 -3 -3 -4 -4 -4 -4 -4 -4 -4 -4 -4 -4 -4 -4 -4 -4 -4 -4 -4 -4 -4 -4 -4 -4 -4 -3 -3 -3 -3 -3 -3 -3 -3 -3
-3 -3 -3 -3 -4 -4 -4 -4 -4 -4 -4 -4 -4 -4 -4 -4 -4 -4 -5 -5 -4 -4 -5 -5 -5 -5 -5 -5 -5 -5 -5 -4 -4 -4 -4 -4 -4 -4 -4 -4 -4 -3 -3
-3 -4 -4 -4 -4 -4 -4 -4 -4 -4 -4 -4 -4 -4 -5 -5 -5 -5 -5 -5 -5 -5 -5 -5 -5 -5 -5 -5 -5 -5 -5 -5 -5 -5 -4 -4 -4 -4 -4 -4 -4 -4 -4
-4 -4 -4 -4 -4 -5 -5 -5 -5 -5 -5 -5 -5 -5 -5 -5 -5 -5 -5 -5 -5 -5 -6 -6 -6 -6 -6 -6 -6 -6 -6 -5 -5 -5 -5 -5 -5 -5 -5 -4 -4 -4 -4
-4 -4 -5 -5 -5 -5 -5 -5 -5 -5 -5 -5 -5 -5 -5 -6 -5 -5 -6 -6 -6 -6 -6 -6 -6 -6 -6 -6 -6 -6 -6 -6 -6 -5 -5 -5 -5 -5 -5 -5 -5 -4 -4
-5 -5 -5 -5 -5 -5 -5 -5 -5 -5 -6 -6 -6 -6 -6 -6 -6 -6 -6 -6 -6 -6 -6 -6 -6 -6 -6 -6 -6 -6 -6 -6 -6 -6 -6 -6 -5 -5 -5 -5 -5 -5 -4
-5 -5 -5 -5 -5 -6 -6 -6 -6 -6 -6 -6 -6 -6 -6 -6 -6 -6 -6 -6 -6 -6 -7 -7 -7 -7 -7 -7 -7 -7 -7 -6 -6 -6 -6 -6 -6 -5 -5 -5 -5 -5 -4
-6 -6 -6 -6 -6 -6 -6 -6 -6 -6 -6 -6 -7 -7 -7 -7 -7 -7 -7 -7 -7 -7 -7 -7 -7 -7 -7 -7 -7 -7 -7 -7 -7 -6 -6 -6 -6 -6 -5 -5 -5 -5 -5
-6 -6 -6 -6 -6 -6 -6 -6 -6 -7 -7 -7 -7 -7 -7 -7 -7 -7 -7 -7 -7 -7 -7 -7 -7 -7 -7 -7 -7 -7 -7 -7 -7 -7 -6 -6 -6 -6 -6 -6 -5 -5 -5
-6 -6 -6 -6 -7 -6 -7 -7 -7 -7 -7 -7 -7 -7 -7 -7 -7 -7 -7 -7 -7 -7 -7 -7 -7 -7 -7 -7 -7 -7 -7 -7 -7 -7 -7 -6 -6 -6 -6 -6 -6 -5 -5
Wind_Speed
1 1 0 0 1 1 2 2 2 1 1 1 1 0 1 1 1 2 1 1 1 1 0 1 0 0 0 1 0 1 1 1 3 4 3 3 3 4 6 8 8 8 8
2 1 0 0 1 1 1 1 2 1 1 1 1 1 1 1 1 1 1 1 1 1 0 1 0 0 1 1 0 1 1 1 2 5 4 3 3 3 4 5 7 7 8
2 1 0 1 0 1 1 1 1 1 1 0 1 1 1 1 1 1 1 1 1 0 0 0 1 0 1 1 1 1 2 1 2 3 4 3 3 3 4 5 5 5 7
2 1 0 1 1 1 1 1 1 1 1 1 1 1 1 1 1 1 1 1 1 0 0 1 1 1 1 1 1 2 1 1 1 2 4 3 3 3 3 5 6 5 5
2 1 1 1 0 1 0 0 1 1 1 1 0 0 0 1 1 1 1 2 1 0 1 1 1 2 3 2 2 2 1 1 1 2 3 3 3 3 4 4 6 6 5
2 1 1 1 1 0 0 1 1 0 0 1 0 0 0 0 1 1 1 2 1 0 1 1 2 2 3 4 4 3 2 2 2 2 3 4 4 4 4 4 5 6 4
2 1 1 1 1 1 1 1 1 0 0 0 0 0 0 1 1 1 1 2 1 0 1 1 2 2 3 2 3 4 4 4 4 3 4 4 4 4 4 4 4 5 5
2 2 1 1 0 0 1 0 0 0 0 0 1 0 0 1 2 2 1 2 1 0 0 0 1 2 3 2 2 2 3 3 3 2 3 4 4 4 4 4 4 5 5
2 2 2 1 0 0 0 0 0 0 0 0 0 0 0 1 2 2 2 2 1 0 1 1 1 2 4 5 3 3 4 4 4 5 5 5 5 5 4 2 3 3 4
3 3 2 1 1 1 1 0 0 0 0 1 1 1 0 1 2 2 2 2 1 1 1 1 3 4 6 6 3 2 4 4 4 5 4 4 4 4 4 2 2 3 3
3 2 2 1 1 1 0 1 1 1 1 1 1 1 1 1 2 2 2 2 1 1 1 2 2 6 7 7 5 2 4 5 3 3 3 3 3 2 3 3 2 2 3
2 2 2 1 1 0 1 1 1 1 2 1 1 2 1 1 2 2 3 2 2 1 1 1 3 7 7 7 5 5 6 5 2 2 2 3 3 3 3 4 5 5 5
2 2 2 2 1 1 1 1 1 1 1 1 1 1 1 1 2 3 4 4 4 2 1 3 4 6 6 5 5 7 5 3 2 2 3 3 3 3 4 4 4 4 4
2 2 2 2 2 2 1 1 1 1 0 0 0 0 1 1 1 1 1 2 3 2 2 3 4 5 4 4 4 4 3 3 3 2 3 3 3 3 3 3 3 4 4
1 1 1 1 1 1 2 1 1 0 1 1 1 0 0 1 2 3 2 1 1 1 2 2 2 2 3 3 3 3 3 3 3 3 3 3 3 3 3 3 2 3 3
1 1 1 1 1 1 1 2 3 2 3 3 3 2 1 2 3 4 3 3 2 2 2 1 2 2 2 3 3 3 3 3 3 3 3 3 3 3 4 3 3 3 3
1 1 1 1 1 1 0 0 1 2 4 4 4 4 3 3 3 3 3 3 3 3 2 1 2 2 3 3 3 3 3 4 3 3 4 3 3 3 3 3 4 3 4
1 1 1 0 0 0 0 0 0 1 2 2 3 4 4 4 4 4 3 3 2 3 2 2 2 2 2 3 3 3 4 4 4 4 4 4 3 4 4 4 4 4 4
1 1 1 0 0 0 0 0 0 0 0 1 1 2 4 4 4 4 3 2 1 1 2 2 2 2 3 3 3 3 3 4 4 4 4 4 4 4 4 4 4 5 4
1 1 1 0 0 0 0 0 0 0 0 1 1 1 2 2 1 2 2 1 1 1 1 2 2 2 2 3 3 3 3 4 4 4 4 5 5 4 5 5 4 4 4
1 1 1 1 0 0 0 1 1 1 1 1 1 2 2 1 1 1 1 1 1 1 1 2 2 2 2 2 3 3 4 4 4 4 4 5 5 5 5 4 4 4 3
0 1 1 1 1 1 1 1 1 1 1 1 1 2 3 1 1 1 1 1 1 1 1 2 2 2 2 2 3 3 3 4 4 4 5 5 5 5 5 4 4 4 3
1 1 1 1 1 1 1 1 1 1 1 2 2 2 1 1 2 2 2 2 2 2 2 2 2 2 3 3 4 4 4 4 5 5 5 5 5 5 4 4 4 4 4
1 1 1 1 1 1 1 1 1 2 2 2 2 2 2 2 2 2 2 2 2 2 3 3 3 4 5 4 4 5 5 6 7 6 6 5 5 5 4 4 4 4 4
1 1 1 1 1 1 1 2 2 2 2 2 2 2 2 2 2 2 2 2 2 3 3 3 3 4 5 6 6 6 8 9 8 7 5 4 5 5 4 4 4 4 4
2 2 1 1 1 2 2 2 2 2 2 3 2 2 2 2 2 2 2 2 2 3 3 4 5 5 6 6 7 8 9 9 8 8 5 4 4 4 4 3 4 3 3
Wind_Direction
302 293 295 287 200 169 172 181 170 164 168 182 173 141 120 113 103 101 89 114 110 81 72 137 136 67 35 355 316 284 308 279 278 293 287 302 308 321 330 332 329 327 327
320 312 291 58 104 135 177 165 150 156 178 201 173 150 145 125 113 112 100 113 113 91 29 56 4 22 24 336 300 283 290 290 273 290 299 306 310 316 321 319 329 329 331
343 355 16 28 124 145 194 154 153 155 151 160 175 191 179 162 157 147 137 115 102 147 4 315 298 317 327 319 310 292 287 303 288 287 293 301 310 321 327 325 323 324 333
354 0 351 294 234 205 193 161 158 154 159 190 220 222 190 171 171 153 126 116 100 29 320 287 281 278 280 295 312 301 296 316 316 305 298 309 316 320 329 332 332 332 326
350 332 298 321 49 56 46 116 132 145 169 170 148 324 180 166 172 158 140 123 113 12 328 309 299 309 316 311 315 310 311 307 309 311 310 316 322 334 333 325 324 327 322
329 294 316 11 44 72 68 63 77 97 97 92 174 252 226 240 275 308 97 125 132 199 308 327 328 334 337 336 323 324 318 294 295 297 304 304 308 314 316 319 325 331 321
327 319 331 354 13 357 39 62 65 81 111 101 290 226 213 283 319 333 64 115 126 164 298 315 335 337 339 323 325 333 329 326 311 284 283 289 296 299 303 307 310 310 300
336 336 328 330 310 29 63 60 3 97 139 220 268 263 2 314 333 342 35 104 110 216 276 290 314 317 320 321 324 336 324 316 311 304 278 278 285 286 276 286 292 302 296
333 328 315 288 271 154 208 270 278 69 7 307 305 288 226 310 333 347 33 107 97 34 351 348 324 305 315 331 348 335 328 326 332 328 315 316 319 319 322 317 316 321 317
318 313 313 288 219 232 247 283 22 59 283 342 3 5 15 287 336 7 45 110 93 11 351 354 342 332 324 336 345 327 320 316 326 332 336 343 331 321 331 318 283 296 308
324 332 338 335 292 241 115 60 44 38 34 20 359 7 13 356 5 8 30 83 105 23 354 350 337 334 334 339 341 320 308 319 322 319 320 326 327 326 328 326 296 263 274
352 357 349 347 340 43 95 84 78 78 58 16 12 21 28 28 17 8 14 28 35 67 353 336 332 335 341 344 346 334 333 343 336 322 327 327 327 325 317 315 307 292 268
22 5 354 355 0 44 99 105 90 93 88 347 11 22 11 19 7 4 10 10 8 24 357 335 341 346 351 354 347 347 356 357 333 326 322 315 306 301 307 316 322 322 310
27 13 17 31 28 40 56 72 86 97 120 303 346 10 1 3 352 351 17 15 12 12 7 355 1 3 9 358 354 356 357 345 338 314 303 300 305 310 313 320 326 335 334
23 28 24 25 42 49 38 25 18 325 243 268 273 242 274 315 322 336 358 8 15 360 15 29 19 8 5 0 358 355 351 345 341 327 313 312 316 318 318 328 325 329 332
15 13 11 11 25 51 56 25 17 10 3 357 351 353 341 319 327 341 348 0 7 17 34 21 355 348 344 344 345 342 339 339 335 329 319 313 316 319 323 331 332 329 326
325 328 345 359 19 25 33 44 5 10 16 14 7 1 358 349 350 355 5 28 31 34 35 11 352 346 343 341 336 330 324 325 328 327 324 320 317 318 322 326 328 327 323
328 318 334 314 318 296 278 308 323 7 7 5 8 9 9 7 10 13 18 42 36 34 28 8 351 339 331 328 325 324 325 327 329 326 323 321 317 314 314 318 318 319 319
291 307 322 324 327 305 316 17 16 13 331 343 0 1 3 6 14 17 25 45 36 11 2 346 338 333 327 326 324 323 323 322 324 328 325 322 318 312 308 310 312 316 319
297 295 331 332 335 330 327 275 277 262 271 307 318 324 344 358 8 3 10 24 11 349 337 327 326 324 324 325 327 325 324 323 323 324 323 321 319 315 309 307 308 309 308
294 288 303 346 317 280 259 235 230 225 237 268 283 297 309 319 304 320 328 333 321 310 312 311 307 306 312 315 318 317 317 317 316 316 316 315 317 317 315 310 308 307 309
266 279 268 260 272 270 268 240 228 233 239 253 278 297 304 321 314 302 304 309 312 307 301 293 290 291 295 299 302 305 306 307 308 308 308 309 309 310 313 313 314 314 313
236 255 281 283 269 271 289 272 256 248 247 252 265 274 282 280 278 278 283 289 295 304 300 297 295 301 302 298 295 292 288 291 294 296 302 305 304 305 308 311 313 315 315
218 227 240 250 251 251 252 260 263 260 254 255 257 258 259 264 270 274 275 285 293 295 292 292 290 289 296 302 299 295 291 293 294 292 293 293 297 303 307 312 315 316 314
222 233 236 242 247 253 256 260 264 266 263 262 262 263 264 266 271 274 273 277 283 287 293 294 291 289 291 295 297 298 299 300 301 300 297 294 294 297 303 309 313 318 321
232 238 241 246 250 256 259 262 263 266 265 265 264 264 265 266 270 271 271 271 278 285 292 294 292 292 293 294 295 300 303 301 301 303 305 300 298 298 305 305 311 314 317
Height
1466 1466 1466 1466 1467 1467 1468 1468 1469 1470 1470 1470 1470 1470 1471 1471 1472 1472 1473 1474 1474 1475 1476 1476 1477 1478 1478 1478 1478 1478 1477 1477 1475 1473 1473 1472 1471 1470 1468 1467 1466 1464 1463
1464 1463 1463 1464 1464 1465 1466 1466 1467 1467 1468 1468 1468 1468 1469 1469 1470 1470 1470 1471 1472 1472 1473 1473 1474 1475 1475 1475 1475 1474 1474 1474 1473 1470 1469 1468 1467 1466 1464 1463 1462 1460 1459
1462 1462 1462 1462 1462 1463 1464 1464 1465 1465 1465 1466 1466 1466 1467 1467 1467 1468 1468 1469 1470 1470 1470 1471 1472 1472 1472 1472 1471 1471 1471 1471 1470 1468 1465 1464 1463 1462 1461 1460 1458 1457 1456
1461 1461 1460 1460 1460 1461 1462 1463 1463 1463 1464 1464 1464 1464 1465 1465 1465 1466 1466 1467 1468 1468 1468 1469 1469 1469 1469 1469 1469 1469 1468 1467 1466 1465 1463 1461 1460 1459 1458 1456 1454 1453 1452
1460 1460 1460 1459 1459 1460 1460 1460 1461 1461 1462 1462 1462 1462 1463 1463 1464 1464 1464 1465 1465 1466 1466 1467 1467 1467 1467 1467 1466 1466 1465 1464 1463 1462 1461 1459 1458 1456 1455 1453 1451 1450 1449
1459 1459 1459 1458 1458 1459 1459 1459 1459 1460 1460 1460 1460 1460 1461 1461 1462 1462 1462 1462 1463 1463 1463 1464 1464 1464 1464 1464 1464 1463 1463 1462 1461 1460 1459 1457 1455 1454 1453 1451 1449 1447 1445
1458 1458 1457 1457 1457 1457 1458 1458 1458 1458 1458 1458 1458 1459 1459 1460 1460 1460 1461 1461 1461 1461 1461 1461 1461 1461 1461 1461 1461 1461 1460 1459 1459 1458 1457 1455 1453 1452 1451 1449 1447 1446 1444
1457 1456 1456 1456 1455 1456 1456 1456 1457 1457 1457 1457 1457 1457 1457 1458 1458 1458 1459 1458 1459 1459 1459 1459 1459 1459 1459 1459 1458 1458 1457 1456 1455 1455 1454 1452 1451 1450 1449 1447 1446 1444 1442
1455 1455 1454 1454 1454 1454 1454 1455 1455 1455 1455 1455 1455 1455 1455 1456 1456 1457 1457 1456 1456 1457 1457 1457 1457 1457 1456 1456 1455 1454 1453 1453 1452 1451 1450 1449 1449 1448 1447 1445 1443 1441 1438
1454 1453 1453 1453 1453 1453 1453 1453 1453 1453 1453 1453 1453 1453 1454 1454 1455 1455 1455 1455 1454 1455 1455 1455 1455 1454 1454 1453 1452 1451 1451 1450 1449 1448 1448 1447 1446 1445 1444 1442 1441 1439 1437
1453 1452 1452 1451 1451 1451 1451 1451 1451 1451 1451 1451 1452 1452 1452 1453 1453 1454 1454 1453 1453 1452 1452 1452 1452 1452 1452 1451 1450 1449 1448 1448 1446 1446 1445 1444 1443 1442 1441 1440 1438 1437 1436
1451 1451 1450 1450 1450 1450 1450 1450 1450 1450 1450 1450 1450 1450 1451 1451 1452 1452 1452 1452 1452 1451 1451 1450 1450 1450 1449 1448 1447 1447 1446 1445 1444 1443 1442 1441 1440 1439 1438 1437 1436 1434 1433
1450 1449 1449 1449 1449 1448 1448 1448 1448 1448 1448 1448 1449 1449 1449 1450 1450 1451 1451 1450 1450 1450 1449 1449 1448 1448 1447 1446 1445 1445 1444 1443 1442 1440 1439 1438 1437 1436 1435 1434 1433 1432 1431
1448 1448 1447 1447 1447 1447 1447 1447 1447 1447 1447 1447 1447 1447 1448 1448 1448 1449 1448 1448 1448 1448 1447 1447 1446 1445 1445 1444 1443 1442 1441 1440 1439 1438 1437 1436 1435 1434 1433 1431 1430 1428 1427
1447 1447 1446 1446 1445 1445 1445 1446 1446 1446 1446 1446 1446 1446 1446 1446 1447 1447 1447 1446 1446 1446 1445 1444 1444 1443 1442 1442 1441 1440 1439 1438 1437 1436 1435 1434 1433 1432 1430 1429 1428 1426 1425
1445 1445 1445 1444 1444 1444 1443 1444 1444 1444 1445 1445 1445 1445 1445 1446 1445 1445 1445 1445 1444 1444 1443 1442 1442 1441 1440 1440 1439 1438 1438 1437 1436 1434 1433 1432 1431 1430 1428 1427 1426 1425 1423
1444 1443 1443 1443 1442 1442 1442 1442 1442 1443 1443 1443 1443 1443 1444 1444 1444 1443 1443 1443 1443 1442 1442 1441 1440 1440 1439 1439 1438 1437 1436 1435 1434 1433 1432 1430 1429 1428 1427 1426 1424 1423 1421
1442 1442 1441 1441 1441 1441 1441 1441 1440 1440 1440 1441 1442 1442 1442 1442 1441 1441 1441 1441 1441 1440 1440 1439 1439 1438 1438 1437 1436 1435 1434 1433 1432 1431 1430 1429 1428 1427 1426 1424 1423 1421 1420
1440 1440 1439 1439 1439 1439 1439 1439 1439 1439 1439 1439 1439 1440 1440 1440 1439 1439 1439 1439 1438 1438 1438 1438 1438 1437 1436 1435 1434 1434 1432 1431 1430 1429 1428 1428 1426 1425 1424 1423 1421 1420 1419
1438 1438 1438 1438 1438 1437 1437 1437 1437 1437 1437 1437 1437 1437 1437 1437 1437 1437 1437 1436 1436 1436 1436 1436 1436 1435 1434 1434 1432 1432 1431 1430 1428 1427 1427 1426 1425 1424 1422 1421 1420 1418 1417
1436 1436 1436 1436 1436 1435 1435 1435 1435 1435 1435 1435 1435 1436 1435 1435 1435 1434 1434 1434 1434 1434 1434 1434 1433 1433 1432 1432 1431 1429 1429 1428 1427 1426 1425 1424 1423 1422 1420 1419 1418 1417 1415
1434 1434 1434 1434 1434 1433 1433 1433 1433 1433 1433 1433 1433 1433 1433 1433 1433 1433 1432 1432 1432 1432 1432 1431 1431 1431 1430 1429 1428 1427 1426 1425 1425 1424 1423 1422 1421 1420 1419 1417 1416 1415 1413
1433 1433 1432 1432 1432 1432 1432 1431 1431 1431 1431 1431 1431 1431 1431 1431 1430 1430 1430 1430 1430 1430 1429 1429 1429 1428 1428 1427 1426 1425 1424 1423 1423 1422 1421 1420 1419 1418 1417 1416 1415 1413 1412
1431 1431 1430 1430 1430 1430 1430 1429 1429 1429 1429 1429 1429 1429 1429 1428 1428 1428 1428 1427 1427 1427 1427 1426 1426 1425 1425 1424 1423 1422 1422 1421 1420 1420 1419 1418 1417 1416 1415 1414 1413 1412 1410
1429 1428 1428 1428 1428 1428 1428 1427 1427 1427 1427 1427 1426 1426 1426 1426 1426 1425 1425 1425 1424 1424 1424 1423 1423 1422 1422 1421 1421 1420 1419 1418 1418 1417 1417 1416 1415 1414 1414 1412 1411 1410 1409
1426 1426 1426 1425 1425 1425 1425 1425 1425 1425 1424 1424 1424 1424 1423 1423 1423 1422 1422 1422 1421 1421 1421 1420 1420 1420 1419 1418 1417 1417 1416 1416 1416 1415 1415 1414 1413 1412 1412 1411 1410 1409 1408